CZ-6A DEB, 56645

Orbit data source: Space-Track

CZ-6A DEB, 56645 is space debris in SSO originally from a launch on Fri, 11 Nov 2022 UTC launched from the Taiyaun Space Center, China (TSC). Debris objects in space refer to the collection of defunct objects orbiting the Earth. Examples of debris include non-operational satellites, rocket bodies, and fragments generated from explosions, collisions, or faulty payload assembly.

Loading next visibility...
Identifier
56645, 2022-151AFV
Orbit
SSO
Country
Flag of CNCN / PRC
Related business
Manufacturer
SAST
Mission
Spacecraft
Bus & Motor
Unknown
Mass
Unknown
Launch date (UTC)
2022-11-11 (4 years ago)
Launch vehicle
Unknown
Launch site
Taiyaun Space Center, China (TSC)
Object type
Payload
Rocket body
Debris
Shape & HBR
Unknown shape, 0.1 m
Radar Cross Section
Small (<0.1 m²)

Expand to show TLE details & history
Last TLE update: 2 days ago

TLE from 2 days ago
0 CZ-6A DEB
1 56645U 22151AFV 26235.27453247  .00001226  00000-0  60360-3 0  9998
2 56645  98.8036 241.7268 0041518 146.8644 213.5145 14.18996921172454
Epoch: 2026-08-23T06:35Z
TLE epoch observation values (Epoch: 2026-08-23T06:35:19.605Z)
Latitude
-0°
Longitude
171.32218°
Altitude
856.647 km
Speed
7.411 km/s
True Right ascension
16h 06m 54s
True Declination
0° 00' 00"
Sunlit
Object was in daylight at epoch
Visualization orbit readout
Latitude
Unknown
Longitude
Unknown
Altitude
Unknown
Speed
Unknown
Apparent Right ascension
Unknown
Apparent Declination
Unknown
Sunlit
N/A
Visualization observer readout
Local Sidereal Time
15:56:25
Azimuth
Unknown
Elevation
Unknown
Doppler factor
Unknown
Orbital elements
Apogee altitude
855.821 km
Perigee altitude
796.002 km
Semi-major axis
7,204.049 km
Eccentricity
0.00415
Inclination
98.8036°
RAAN
241.7268°
Arg. of periapsis
146.8644°
True anomaly
213.25294°
Mean anomaly
213.5145°
Eccentric anomaly
213.38361°
Mean motion
3.54959 °/min
Orbital period
101.42 mins
BSTAR
0.0006036
Loading maneuver chart data...
Computing Atmospheric mass density...

Documentation

Showing up to 5 results
|